Hourly Data Report for October 19, 2016

All times are specified in Local Standard Time (LST). Add 1 hour to adjust for Daylight Saving Time where and when it is observed.

KAMLOOPS A
BRITISH COLUMBIA

50°42'09.000" N
120°26'55.000" W
345.30 m
1163781
71887
YKA

Download Data

Hourly Data (October 2016)
Hourly Data Report for October 19, 2016
Temp Definition
°C
Dew Point Temp Definition
°C
Rel Hum Definition
%
Wind Dir Definition
10's deg

Wind Spd Definition
km/h
Visibility Definition
km
Stn Press Definition
kPa
Hmdx Definition


Wind Chill Definition


Weather Definition


TIME
00:00 Legend Double Dagger 5.6 3.9 89 36 3 64.4 98.05     LegendNANA
01:00 Legend Double Dagger 4.3 3.0 91   0 64.4 98.12     Mainly Clear
02:00 Legend Double Dagger 4.3 2.0 85 36 3 64.4 98.21     LegendNANA
03:00 Legend Double Dagger 4.1 2.5 89 0 1 64.4 98.27     LegendNANA
04:00 Legend Double Dagger 4.3 3.1 92 18 5 64.4 98.33     Mainly Clear
05:00 Legend Double Dagger 2.4 1.4 93 10 4 64.4 98.35     LegendNANA
06:00 Legend Double Dagger 2.2 1.2 93 36 1 64.4 98.37     LegendNANA
07:00 Legend Double Dagger 1.9 1.0 94 36 2 64.4 98.43     Mainly Clear
08:00 Legend Double Dagger 3.0 2.0 93 36 2 9.7 98.46     Fog
09:00 Legend Double Dagger 6.0 4.3 89 36 1 32.2 98.46     LegendNANA
10:00 Legend Double Dagger 8.4 3.9 73 9 5 64.4 98.42     Mainly Clear
11:00 Legend Double Dagger 10.5 4.5 66 36 2 64.4 98.36     LegendNANA
12:00 Legend Double Dagger 13.9 5.1 55 6 11 64.4 98.28     LegendNANA
13:00 Legend Double Dagger 15.7 2.6 41 11 29 64.4 98.19     Mostly Cloudy
14:00 Legend Double Dagger 14.7 3.3 46 10 26 64.4 98.15     LegendNANA
15:00 Legend Double Dagger 14.5 2.8 45 11 27 64.4 98.09     LegendNANA
16:00 Legend Double Dagger 13.2 3.4 51 9 17 64.4 98.05     Cloudy
17:00 Legend Double Dagger 12.5 3.0 52 11 14 64.4 98.03     LegendNANA
18:00 Legend Double Dagger 13.4 1.8 45 13 20 64.4 98.01     LegendNANA
19:00 Legend Double Dagger 12.9 1.3 45 14 24 64.4 97.96     Cloudy
20:00 Legend Double Dagger 12.4 1.8 48 10 21 64.4 97.93     LegendNANA
21:00 Legend Double Dagger 10.1 4.5 68 8 14 48.3 97.90     Rain
22:00 Legend Double Dagger 9.9 4.9 71 7 16 64.4 97.87     Cloudy
23:00 Legend Double Dagger 9.2 5.4 77 9 24 64.4 97.75     Rain

Notes on Data Quality.

Legend

  • E = Estimated
  • M = Missing
  • NA = Not Available
  • ‡ = Partner data that is not subject to review by the National Climate Archives
Date modified: